Regional Weather Roundup
Issued by NWS

Home | Current Version | Previous Version | Text Only | Print | Product List | Glossary Off
Versions: 1 2 3 4 5 6 7 8 9 10 11 12 13 14 15 16 17 18 19 20 21 22 23 24 25 26 27 28 29 30 31 32 33 34 35 36 37 38 39 40 41 42 43 44 45 46 47 48 49 50

562
ASUS43 KMKX 251000
RWRWI

WISCONSIN REGIONAL WEATHER ROUNDUP
NATIONAL WEATHER SERVICE MILWAUKEE/SULLIVAN WI
400 AM CST SAT FEB 25 2017

NOTE: "FAIR" INDICATES FEW OR NO CLOUDS BELOW 12,000 FEET WITH NO
SIGNIFICANT WEATHER AND/OR OBSTRUCTIONS TO VISIBILITY.

WIZ001-002-006>008-014>016-023>028-251100-
NORTHWEST WISCONSIN

CITY           SKY/WX    TMP DP  RH WIND       PRES   REMARKS
SUPERIOR ARPT  CLEAR     12   5  73 NW13      29.86S WCI  -3
ASHLAND        CLOUDY    15   7  70 NW14      29.77S WCI   0
HAYWARD        MOCLDY    13   3  64 VRB7G23   29.76S WCI   3
SIREN          MOCLDY    13   3  65 NW12G17   29.85S WCI  -1
CUMBERLAND     CLOUDY    14   5  67 NW18      29.78S WCI  -3
RICE LAKE      PTCLDY    14   6  68 NW10G17   29.80S WCI   2
CHETEK         PTCLDY    13   5  69 NW5       29.79S WCI   5
LADYSMITH      CLOUDY    15   7  69 NW20      29.73F WCI  -2
EAU CLAIRE     NOT AVBL
MENOMONIE      CLEAR     16   6  64 NW12      29.81S WCI   2
NEW RICHMOND   CLEAR     15   4  61 NW24      29.85S WCI  -4
OSCEOLA        CLEAR     16   4  61 NW12G23   29.89F WCI   2
$$

WIZ003>005-009-010-017-018-251100-
NORTH CENTRAL WISCONSIN

CITY           SKY/WX    TMP DP  RH WIND       PRES   REMARKS
MANITOWISH WTR LGT SNOW  14  11  89 NW14      29.60F WCI  -1
ARBOR VITAE    LGT SNOW  17  13  86 NW12G18     N/A  WCI   4
WOODRUFF       LGT SNOW  17  13  86 NW12G18     N/A  WCI   4
RHINELANDER    LGT SNOW  16  11  80 NW5       29.59R WCI   9
EAGLE RIVER    FLURRIES  14   8  76 N16       29.57S WCI  -2
LAND O LAKES   FLURRIES  15  10  83 NW15G23   29.57F WCI  -1
PHILLIPS       LGT SNOW  13   9  82 NW13G20   29.65S WCI  -1
TOMAHAWK       LGT SNOW  15  10  83 NW12G18   29.62S WCI   1
MEDFORD        LGT SNOW  14   8  78 NW12G18   29.65R WCI   0
MERRILL        NOT AVBL
$$

WIZ029-030-035-036-043>047-251100-
CENTRAL WISCONSIN

CITY           SKY/WX    TMP DP  RH WIND       PRES   REMARKS
WAUSAU         LGT SNOW  16  11  80 NW16G23   29.62S WCI   1
MOSINEE        LGT SNOW  18  14  86 NW15      29.64S WCI   3
MARSHFIELD     FLURRIES  16   9  74 NW20      29.66S WCI  -1
STEVENS POINT  LGT SNOW  15  13  90 W8        29.65S WCI   5
WAUPACA        LGT SNOW  21  16  83 NW9       29.64R WCI  10
WAUTOMA        LGT SNOW  17  14  88 NW13        N/A  FOG     WCI   4
WISC RAPIDS    LGT SNOW  17  12  80 NW15G23   29.69R WCI   2
CAMP DOUGLAS   FLURRIES  18  12  79 NW10      29.72S WCI   6
$$

WIZ011>013-019>022-031-037>040-048>050-251100-
NORTHEAST WISCONSIN

CITY           SKY/WX    TMP DP  RH WIND       PRES   REMARKS
ANTIGO         LGT SNOW  15  11  85 NW15      29.58R WCI   0
SHAWANO        LGT SNOW  21  17  86 CALM      29.61R
OCONTO         CLOUDY    20  16  82 NW8G20    29.56R WCI  11
STURGEON BAY   LGT SNOW  21  18  88 NW17      29.53S FOG     WCI   7
GREEN BAY      CLOUDY    21  19  92 NW14      29.59R FOG     WCI   8
MANITOWOC      NOT AVBL
APPLETON       LGT SNOW  19  16  86 NW10      29.59R WCI   8
CLINTONVILLE   LGT SNOW  19  16  86 NW10      29.62R WCI   8
OSHKOSH        LGT SNOW  20  16  84 NW13G22   29.61R FOG     WCI   7
$$

WIZ032>034-041-042-053>061-251100-
SOUTHWEST WISCONSIN

CITY           SKY/WX    TMP DP  RH WIND       PRES   REMARKS
LA CROSSE      MOCLDY    20  10  65 NW22      29.80R WCI   3
SPARTA         LGT SNOW  19  14  84 NW12      29.77S WCI   6
VIROQUA        CLOUDY    18  14  86 NW13G18   29.73S WCI   4
BOSCOBEL       LGT SNOW  21  14  74 W7        29.79R WCI  12
PRAIRIE DU CHI FLURRIES  21  14  75 NW12G18   29.80S WCI   9
PLATTEVILLE    MOCLDY    19  18  95 NW8       29.74S WCI   9
$$

WIZ056-057-062-063-064-067-068-251100-
SOUTH CENTRAL WISCONSIN

CITY           SKY/WX    TMP DP  RH WIND       PRES   REMARKS
REEDSBURG      LGT SNOW  17  15  91 NW9G18    29.71R WCI   6
BARABOO/DELLS  LGT SNOW  17  14  87 NW8       29.69R WCI   7
LONE ROCK      NOT AVBL
MINERAL POINT  LGT SNOW  21  19  93 CALM      29.71R
MADISON        LGT SNOW  18  15  88 NW13G21   29.68R FOG     WCI   5
MIDDLETON      CLOUDY    20  17  88 NW8       29.69R WCI  10
WATERTOWN      LGT SNOW  20  19  95 NW13G20   29.64R WCI   7
MONROE         LGT SNOW  19  18  93 NW16      29.68R WCI   5
JANESVILLE     LGT SNOW  23  21  93 NW15      29.67R WCI  10
$$

WIZ051-052-058>065-066-070>072-251100-
SOUTHEAST WISCONSIN

CITY           SKY/WX    TMP DP  RH WIND       PRES   REMARKS
MILWAUKEE      LGT SNOW  24  18  77 W14G22    29.61R WCI  12
WAUKESHA       CLOUDY    21  18  86 W12G17    29.62R WCI   9
MILWAUKEE/TIMM LGT SNOW  23  18  80 W13       29.62R WCI  11
RACINE         LGT SNOW  24  18  77 NW12G23   29.63R WCI  13
KENOSHA        CLOUDY    24  19  81 NW15      29.62R WCI  11
FOND DU LAC    LGT SNOW  20  15  81 NW12      29.62R VSB 1   WCI   8
SHEBOYGAN      LGT SNOW  21  17  84 NW13      29.58R FOG     WCI   9
WEST BEND      LGT SNOW  21  19  93 W3        29.60R
JUNEAU         LGT SNOW  19  16  89 W5        29.64R WCI  12
$$

LSZ147-162-251100-
LAKE SUPERIOR

STATION/POSITION TIME  TEMP    WIND        PRES    WAVE
                       AIR SEA DIR/SP/G            HT/PER
                 (UTC) (F)     (DEG/KT/KT) (MB)    (FT/S)
DEVILS ISLAND    0900   17     340/ 24/ 28 1009.0F
PORT WING        0940   16     310/ 16/ 22 1009.8S
SAXON HARBOR     0940   19     330/ 21/ 26 1007.1S
$$

LMZ867-665-643>646-251100-
LAKE MICHIGAN

STATION/POSITION TIME  TEMP    WIND        PRES    WAVE
                       AIR SEA DIR/SP/G            HT/PER
                 (UTC) (F)     (DEG/KT/KT) (MB)    (FT/S)
CHAMBERS ISLAND  0940   22     300/  2/  3  999.7R
NORTHPORT PIER   0940   24     310/  2/  3  999.3R
SISTER BAY       0905   23        CALM       N/A
KEWAUNEE LAKESHO 0930   21     320/ 12/ 17 1000.1R
SHEBOYGAN LAKESH 0900   22     300/  5/  6 1002.0R
PORT WASHINGTON  0930   22     290/ 10/ 15 1003.4R
MILWAUKEE LAKESH 0930   23     290/ 12/ 14   N/A
KENOSHA   LAKESH 0900   26     300/ 12/ 18 1002.7
$$

TC  - TEMPERATURE IN CELSIUS
VSB - VISIBILITY IN STATUTE MILES
WCI - WIND CHILL INDEX
HX  - HEAT INDEX





USA.gov is the U.S. government's official web portal to all federal, state and local government web resources and services.